www.pogodaiklimat.ru

Погода и климат >> Архив погоды >> Иран >> Yazd


ПОГОДА в Yazd

  • Прогноз погоды в Yazd
  • Монитор погоды в Yazd
  • Климат города

АРХИВ ПОГОДЫ в Yazd

Время (UTC), дата Ветер
(напр.,м/с)
 
Видим.   Явления Облачность Т
(С)
Тd
(С)
f
(%)
Тe
(С)
Тes
(С)
Комфортность P
(гПа)
Po
(гПа)
Тmin
(С)
Tmax
(С)
R
(мм)
R24
(мм)
S
(см)
03 9.07 Ю 2 30 км 3/0
[Ac trans]
+28.9 -6.3 10 +25 +27 комфорт 999.5 873.1 +26.7
06 9.07 штиль 0 30 км ясно +38.3 -7.4 5 +34 +55 опасность
солнечного
удара
998.8 873.5
09 9.07 С 4 25 км 1/1 1000 м
[Cu hum]
+40.5 -8.3 4 +36 +49 очень
жарко
997.6 872.2
12 9.07 СВ 4 25 км 1/1 1000 м
[Cu hum]
+40.8 -7.8 4 +36 +42 очень
жарко
997.0 871.0
15 9.07 СВ 6 25 км ясно +38.9 -6.3 5 +34 +34 очень
жарко
997.7 871.3 +41.6
18 9.07 СВ 7 20 км ясно +36.2 -5.2 7 +32 +32 жарко 997.8 872.6
21 9.07 В 1 20 км ясно +32.2 -3.0 10 +28 +28 жарко 998.0 872.5
00 10.07 С 2 20 км ясно +28.5 -2.5 13 +26 +26 жарко 999.0 872.8
03 10.07 штиль 0 15 км 1/0
[Ac trans]
+28.7 -4.2 11 +25 +28 комфорт 1000.8 874.0 +26.8
06 10.07 В 1 15 км ясно +36.7 -5.0 7 +32 +51 опасность
солнечного
удара
1000.5 874.7
09 10.07 С 9 12 км ясно +39.2 -7.8 5 +35 +37 очень
жарко
999.2 873.3
12 10.07 СВ 6 12 км ясно +40.2 -7.4 5 +36 +40 очень
жарко
998.1 871.8
15 10.07 СВ 5 10 км ясно +37.9 -4.0 7 +34 +34 очень
жарко
999.0 872.2 +40.2
18 10.07 СВ 4 7000 м пыль 3/3 1350 м
[Sc diur, vesp]
+35.9 -2.7 8 +32 +32 жарко 999.3 873.7
21 10.07 штиль 0 8000 м пыль ясно +32.4 -1.2 12 +29 +29 жарко 998.9 873.1
00 11.07 СЗ 1 7000 м пыль 4/0
[Ac trans]
+28.5 -1.5 14 +26 +26 жарко 999.2 872.9
03 11.07 Ю 1 6000 м мгла 5/0
[Ac trans]
+31.0 -0.7 13 +28 +30 жарко 1001.0 874.5 +28.2
06 11.07 ЮВ 2 7000 м мгла 1/0
[Ac trans]
+36.4 +0.3 10 +33 +47 жарко 1000.4 874.6
09 11.07 СЗ 5 10 км 1/1 1000 м
[Cu hum]
+38.8 -5.2 6 +34 +44 очень
жарко
998.7 872.8
12 11.07 С 5 10 км ясно +39.0 -4.8 6 +35 +40 очень
жарко
998.1 871.6
15 11.07 С 6 15 км ясно +36.7 -6.2 6 +32 +32 жарко 998.2 871.7 +39.5
18 11.07 СЗ 2 15 км ясно +31.6 -6.2 8 +28 +28 жарко 1000.1 873.4
21 11.07 З 3 15 км ясно +29.3 -5.1 10 +26 +26 жарко 999.2 872.7
00 12.07 З 3 15 км ясно +28.0 -4.6 11 +25 +25 комфорт 999.0 872.3
03 12.07 СЗ 2 15 км ясно +27.3 -3.7 13 +25 +27 комфорт 1001.3 873.7 +26.3
06 12.07 СЗ 4 15 км ясно +32.9 -4.9 8 +29 +39 жарко 1001.1 873.7
09 12.07 СЗ 5 12 км ясно +36.6 -7.4 6 +32 +43 жарко 998.9 872.0
12 12.07 СЗ 6 14 км ясно +38.1 -6.6 6 +34 +38 очень
жарко
996.9 870.3
15 12.07 С 5 15 км ясно +36.1 -6.7 6 +32 +32 жарко 997.4 870.2 +38.3
18 12.07 С 2 15 км ясно +31.8 -4.8 9 +28 +28 жарко 998.8 871.7
21 12.07 ЮЗ 2 15 км ясно +27.4 -5.1 11 +24 +24 комфорт 998.9 871.7
00 13.07 ЮЗ 2 15 км ясно +26.3 -4.4 13 +24 +24 комфорт 998.1 871.0
03 13.07 З 2 15 км ясно +26.8 -3.0 14 +24 +27 комфорт 999.1 871.6 +23.8
06 13.07 СЗ 3 30 км ясно +32.5 -4.3 9 +29 +42 жарко 998.9 871.7
09 13.07 СЗ 4 30 км ясно +37.0 -5.6 6 +33 +47 жарко 997.3 870.3
12 13.07 СЗ 6 30 км ясно +37.9 -6.5 6 +34 +37 очень
жарко
995.4 868.6
15 13.07 СЗ 6 30 км ясно +37.2 -6.6 6 +33 +33 жарко 994.9 868.1 +38.8
18 13.07 СВ 1 25 км ясно +31.8 -7.3 8 +28 +28 жарко 996.2 869.4
21 13.07 З 4 20 км ясно +28.5 -7.6 9 +25 +25 комфорт 996.5 869.7
00 14.07 СВ 1 20 км ясно +25.9 -4.5 13 +23 +23 комфорт 996.6 869.6
03 14.07 ЮЗ 1 25 км ясно +25.7 -4.8 13 +23 +26 комфорт 997.9 870.5 +23.0
06 14.07 З 2 25 км ясно +33.4 -7.1 7 +29 +45 жарко 997.6 870.7
09 14.07 С 3 20 км ясно +37.5 -8.7 5 +33 +50 жарко 995.8 869.3
12 14.07 С 2 20 км ясно +38.4 -13.1 3 +34 +43 очень
жарко
994.2 867.5
15 14.07 СЗ 3 25 км ясно +37.9 -10.4 4 +33 +33 жарко 993.6 866.8 +39.2
18 14.07 Ю 2 30 км ясно +31.6 -9.5 6 +27 +27 жарко 994.0 867.5
21 14.07 Ю 2 25 км ясно +30.6 -8.0 8 +27 +27 жарко 993.5 867.7
00 15.07 СВ 1 25 км ясно +25.1 -4.7 14 +23 +23 комфорт 994.3 867.6
03 15.07 ЮВ 1 30 км ясно +27.2 -5.8 11 +24 +27 комфорт 995.0 868.4 +24.4
06 15.07 З 1 25 км ясно +35.5 -8.2 6 +31 +49 жарко 995.0 868.8
09 15.07 ЮВ 3 20 км ясно +38.7 -9.0 4 +34 +52 опасность
солнечного
удара
992.6 867.1
12 15.07 СВ 2 20 км ясно +40.9 -10.3 4 +36 +46 очень
жарко
991.5 865.4
15 15.07 С 2 20 км ясно +39.8 -9.8 4 +35 +35 очень
жарко
990.2 864.6 +41.4
18 15.07 Ю 3 20 км ясно +35.2 -8.2 6 +31 +31 жарко 990.4 865.5
21 15.07 ЮВ 2 20 км ясно +32.8 -7.5 7 +29 +29 жарко 989.9 865.2
00 16.07 Ю 1 20 км ясно +27.3 -8.5 9 +24 +24 комфорт 991.8 866.2

 

Местоположение метеостанции Yazd (Иран): широта 31.90 долгота 54.28 высота над уровнем моря 1237 м.

В архиве по умолчанию представлена погода в Yazd за последнюю неделю. Архивные данные за месяц целиком и за предыдущие месяцы, начиная с января 2011 года, Вы можете получить, выбрав интересующий диапазон дат из раскрывающегося списка и нажав кнопку "Ввод!".


*Определитесь, кто Вы:
робот инопланетянин человек

Внимание! Время в таблицах - всемирное. Для получения местного времени необходимо прибавить поправку, которая в Yazd равна 3.5 ч.

Смотрите также архив погоды в соседних городах и на ближайших метеорологических станциях:

Погода в Abadeh (Иран) (172 км)
Погода в Khor (Иран) (222 км)
Погода в Esfahan (Иран) (254 км)
Погода в Yasuj (Иран) (291 км)
Погода в Sirjan (Иран) (303 км)
Погода в Tabas (Иран) (311 км)
Погода в Shiraz (Иран) (312 км)
Погода в Kerman (Иран) (315 км)
Погода в Shahre-Kord (Иран) (326 км)
Погода в Fasa (Иран) (331 км)

Пояснения к столбцам:

Ветер - указаны скорость ветра в м/с - средняя за 10 мин, порывы в срок и между сроками (в фигурных скобках) и направление, откуда дует ветер: С - северный, СВ - северо-восточный, В - восточный, ЮВ - юго-восточный, Ю - южный, ЮЗ - юго-западный, З - западный, СЗ - северо-западный.
Видимость - горизонтальная дальность видимости в метрах или километрах. При видимости от 1 до 10 км при отсутствии осадков обычно наблюдается дымка, при ухудшении видимости до 1 км и менее - туман. В сухую погоду видимость может ухудшаться дымом, пылью или мглою.
Явления - указаны атмосферные явления, наблюдавшиеся в срок или в последний час перед сроком; фигурными скобками обозначены явления, наблюдавшиеся между сроками (за 1-3 часа до срока); квадратными скобками обозначены град или гололедные отложения с указанием их диаметра в мм.
Облачность - указаны через наклонную черту общая и нижняя облачность в баллах и высота нижней границы облаков в метрах; квадратными скобками обозначены формы облаков: Ci - перистые, Cs - перисто-слоистые, Cc - перисто-кучевые, Ac - высококучевые, As - высокослоистые, Sc - слоисто-кучевые, Ns - слоисто-дождевые, Cu - кучевые, Cb - кучево-дождевые. Подробнее классификацию облаков см. в Атласе облаков (PDF).
T - Температура воздуха - температура, измеренная на высоте 2 м над землей.
Td - Температура точки росы - температура, при понижении до которой содержащийся в воздухе водяной пар достигнет насыщения.
f - Относительная влажность воздуха - влажноcть воздуха, измеренная на высоте 2 м над землей.
Te - Эффективная температура - температура, которую ощущает одетый по сезону человек в тени. Характеристика душности погоды. При расчете учитывается влияние влажности воздуха и скорости ветра на теплоощущения человека.
Tes - Эффективная температура на солнце - температура, которую ощущает человек, с поправкой на солнечный нагрев. Характеристика знойности погоды. Зависит от высоты солнца над горизонтом, облачности и скорости ветра. Ночью, в пасмурную погоду, а также при ветре 12 м/с и более поправка равна нулю.
P - Атмосферное давление - приведенное к уровню моря атмосферное давление.
Po - Атмосферное давление - измеренное на уровне метеостанции атмосферное давление.
Tmin - Минимальная температура - минимум температуры воздуха на высоте 2 м над землей.
Tmax - Максимальная температура - максимум температуры воздуха на высоте 2 м над землей.
R - Количество осадков - Количество выпавших осадков за период времени, мм. При наведении курсора мыши на число - период времени, за который выпало указанное количество осадков.
R24 - Количество осадков - Количество выпавших осадков за 24 часа, мм.
S - Снежный покров - Высота снежного покрова, см. При наведении курсора мыши на число - состояние снежного покрова и степень покрытия местности в баллах.